Regional Weather Roundup
Issued by NWS

Home | Current Version | Previous Version | Text Only | Print | Product List | Glossary Off
Versions: 1 2 3 4 5 6 7 8 9 10 11 12 13 14 15 16 17 18 19 20 21 22 23 24 25 26 27 28 29 30 31 32 33 34 35 36 37 38 39 40 41 42 43 44 45 46 47 48 49 50

000
ASUS43 KLOT 191700
RWRIL

ILLINOIS REGIONAL WEATHER ROUNDUP
NATIONAL WEATHER SERVICE CHICAGO/ROMEOVILLE IL
1200 PM CDT SUN APR 19 2015

NOTE: "FAIR" INDICATES FEW OR NO CLOUDS BELOW 12,000 FEET WITH NO
SIGNIFICANT WEATHER AND/OR OBSTRUCTIONS TO VISIBILITY.

* THESE STATIONS ARE NOT UNDER NWS QUALITY CONTROL. THEY ALSO MAY NOT
  REPORT WEATHER SUCH AS PRECIPITATION OR FOG.

ILZ001-002-007-009-015-016-024-191800-
NORTHWEST ILLINOIS

CITY           SKY/WX    TMP DP  RH WIND       PRES   REMARKS
MOLINE         MOSUNNY   73  46  38 E7        29.63F
STERLING*      PTSUNNY   72  45  37 E12       29.66F
$$

ILZ003-004-008-010-011-017-018-191800-
NORTH CENTRAL ILLINOIS

CITY           SKY/WX    TMP DP  RH WIND       PRES   REMARKS
ROCKFORD       PTSUNNY   72  41  32 E13G21    29.70F
$$

ILZ005-006-012>014-019>023-191800-
NORTHEAST ILLINOIS

CITY           SKY/WX    TMP DP  RH WIND       PRES   REMARKS
CHICAGO-OHARE  PTSUNNY   67  38  34 E12       29.71F
CHICAGO-MIDWAY PTSUNNY   67  40  37 E12       29.70F
AURORA         PTSUNNY   73  41  31 E14       29.69F
WAUKEGAN       MOSUNNY   57  35  43 E10       29.75F
DUPAGE AIRPORT PTSUNNY   68  40  35 E7        29.69F
WHEELING       MOSUNNY   61  35  37 E12       29.74F
NORTHERLY ISL    N/A     54  38  54 MISG        N/A
$$

LMZ740>746-191800-
SOUTHERN LAKE MICHIGAN

STATION/POSITION SKY/WX   TEMP    WIND        PRES    VSBY  WAVE
                          AIR SEA DIR/SP/G                  HT/PER
                          (F)     (DEG/KT/KT) (MB)    (MI)  (FT/S)
HARRISON CRIB              46      20/ 10/ 10   N/A
BURNHAM HARBOR             52     360/  8/ 10   N/A
CALUMET HARBOR             53      10/  7/ 10   N/A
BURNS HARBOR               68     120/ 18/ 25 1007.5F
MICHIGAN CITY              66      80/ 19/ 25   N/A
MICHIGAN CITY 6N           59 44  140/ 14/ 19   N/A           3/ 5
$$

ILZ025>027-034>036-040-047-049-050-058-095>099-191800-
WEST-CENTRAL ILLINOIS

CITY           SKY/WX    TMP DP  RH WIND       PRES   REMARKS
QUINCY         CLOUDY    71  52  50 CALM      29.60F
$$

ILZ028>032-037-038-041>044-048-051>054-059>061-191800-
CENTRAL ILLINOIS

CITY           SKY/WX    TMP DP  RH WIND       PRES   REMARKS
DECATUR        RAIN      58  55  90 E13       29.63F FOG
PEORIA         CLOUDY    65  48  54 E7        29.66F
SPRINGFIELD    LGT RAIN  61  55  81 E6        29.64F
TAYLORVILLE    NOT AVBL
$$

ILZ033-039-045-046-055>057-062-063-191800-
EAST-CENTRAL ILLINOIS

CITY           SKY/WX    TMP DP  RH WIND       PRES   REMARKS
CHAMPAIGN      LGT RAIN  56  53  90 NE13      29.65F FOG
MATTOON        RAIN      57  56  96 NE9       29.60F FOG
$$

ILZ079-100>102-191800-
SOUTHWEST ILLINOIS

CITY           SKY/WX    TMP DP  RH WIND       PRES   REMARKS
BELLEVILLE     CLOUDY    61  61 100 N6        29.58F
CAHOKIA*       LGT RAIN  63  59  87 NE5       29.59F FOG
$$

ILZ064>066-069>071-074>076-080>082-084>086-088>090-092>094-191800-
SOUTH-CENTRAL ILLINOIS

CITY           SKY/WX    TMP DP  RH WIND       PRES   REMARKS
CARBONDALE     LGT RAIN  64  61  90 NE3       29.56F FOG
MARION         LGT RAIN  64  63  94 SE6       29.58F
MT. VERNON     CLOUDY    61  55  82 E3        29.58F
$$

ILZ067-068-072-073-078-083-087-091-191800-
SOUTHEAST ILLINOIS

CITY           SKY/WX    TMP DP  RH WIND       PRES   REMARKS
LAWRENCEVILLE  RAIN      60  59  96 E8        29.60F FOG
FLORA*         CLOUDY    59  58  96 E5        29.59F FOG
$$

ABBREVIATIONS USED IN REMARKS
   TC - TEMPERATURE IN CELSIUS
  WCI - WIND CHILL INDEX
   HX - HEAT INDEX
  VSB - VISIBILITY
$$




USA.gov is the U.S. government's official web portal to all federal, state and local government web resources and services.